Time,TemperatureF,DewpointF,PressureIn,WindDirection,WindDirectionDegrees,WindSpeedMPH,WindSpeedGustMPH,Humidity,HourlyPrecipIn,Conditions,Clouds,dailyrainin,SoftwareType,DateUTC
2014-10-22 00:10:00,74.0,-99.9,-100.00,West,279,5.0,6.0,-999,-99.99,,,-99.99,,2014-10-22 07:10:00,
2014-10-22 00:22:00,76.0,-99.9,-100.00,West,269,8.0,9.0,-999,-99.99,,,-99.99,,2014-10-22 07:22:00,
2014-10-22 00:32:00,76.0,-99.9,-100.00,West,269,8.0,9.0,-999,-99.99,,,-99.99,,2014-10-22 07:32:00,
2014-10-22 00:53:00,74.0,-99.9,-100.00,West,279,5.0,6.0,-999,-99.99,,,-99.99,,2014-10-22 07:53:00,
2014-10-22 01:02:00,74.0,-99.9,-100.00,West,279,5.0,6.0,-999,-99.99,,,-99.99,,2014-10-22 08:02:00,
2014-10-22 01:43:00,73.0,-99.9,-100.00,East,87,1.0,1.0,-999,-99.99,,,-99.99,,2014-10-22 08:43:00,
2014-10-22 01:52:00,73.0,-99.9,-100.00,East,87,1.0,1.0,-999,-99.99,,,-99.99,,2014-10-22 08:52:00,
2014-10-22 02:23:00,71.0,-99.9,-100.00,WNW,284,4.0,7.0,-999,-99.99,,,-99.99,,2014-10-22 09:23:00,
2014-10-22 02:34:00,71.0,-99.9,-100.00,WNW,284,4.0,7.0,-999,-99.99,,,-99.99,,2014-10-22 09:34:00,
2014-10-22 02:44:00,71.0,-99.9,-100.00,WNW,284,4.0,7.0,-999,-99.99,,,-99.99,,2014-10-22 09:44:00,
2014-10-22 03:20:00,70.0,-99.9,-100.00,West,275,6.0,9.0,-999,-99.99,,,-99.99,,2014-10-22 10:20:00,
2014-10-22 03:42:00,71.0,-99.9,-100.00,East,83,8.0,8.0,-999,-99.99,,,-99.99,,2014-10-22 10:42:00,
2014-10-22 04:13:00,70.0,-99.9,-100.00,West,275,6.0,9.0,-999,-99.99,,,-99.99,,2014-10-22 11:13:00,
2014-10-22 05:13:00,69.0,-99.9,-100.00,NW,312,6.0,6.0,-999,-99.99,,,-99.99,,2014-10-22 12:13:00,
2014-10-22 05:20:00,68.0,-99.9,-100.00,East,96,5.0,7.0,-999,-99.99,,,-99.99,,2014-10-22 12:20:00,
2014-10-22 05:22:00,69.0,-99.9,-100.00,NW,312,6.0,6.0,-999,-99.99,,,-99.99,,2014-10-22 12:22:00,
2014-10-22 05:52:00,69.0,-99.9,-100.00,WSW,247,2.0,2.0,-999,-99.99,,,-99.99,,2014-10-22 12:52:00,
2014-10-22 06:12:00,68.0,-99.9,-100.00,East,96,5.0,7.0,-999,-99.99,,,-99.99,,2014-10-22 13:12:00,
2014-10-22 07:22:00,67.0,-99.9,-100.00,East,89,4.0,6.0,-999,-99.99,,,-99.99,,2014-10-22 14:22:00,
2014-10-22 07:40:00,70.0,-99.9,-100.00,ENE,75,3.0,3.0,-999,-99.99,,,-99.99,,2014-10-22 14:40:00,
2014-10-22 07:42:00,67.0,-99.9,-100.00,ESE,111,2.0,4.0,-999,-99.99,,,-99.99,,2014-10-22 14:42:00,
2014-10-22 08:22:00,70.0,-99.9,-100.00,ENE,75,3.0,3.0,-999,-99.99,,,-99.99,,2014-10-22 15:22:00,
2014-10-22 08:34:00,70.0,-99.9,-100.00,ENE,75,3.0,3.0,-999,-99.99,,,-99.99,,2014-10-22 15:34:00,
2014-10-22 09:54:00,80.0,-99.9,-100.00,WNW,301,1.0,5.0,-999,-99.99,,,-99.99,,2014-10-22 16:54:00,
2014-10-22 10:24:00,81.0,-99.9,-100.00,North,-999,0.0,6.0,-999,-99.99,,,-99.99,,2014-10-22 17:24:00,
2014-10-22 10:43:00,82.0,-99.9,-100.00,ENE,71,7.0,12.0,-999,-99.99,,,-99.99,,2014-10-22 17:43:00,
2014-10-22 10:50:00,83.0,-99.9,-100.00,East,91,4.0,8.0,-999,-99.99,,,-99.99,,2014-10-22 17:50:00,
2014-10-22 10:53:00,82.0,-99.9,-100.00,ENE,71,7.0,12.0,-999,-99.99,,,-99.99,,2014-10-22 17:53:00,
2014-10-22 11:42:00,83.0,-99.9,-100.00,East,91,4.0,8.0,-999,-99.99,,,-99.99,,2014-10-22 18:42:00,
2014-10-22 12:42:00,87.0,-99.9,-100.00,ENE,62,6.0,9.0,-999,-99.99,,,-99.99,,2014-10-22 19:42:00,
2014-10-22 13:10:00,89.0,-99.9,-100.00,SE,129,4.0,8.0,-999,-99.99,,,-99.99,,2014-10-22 20:10:00,
2014-10-22 13:23:00,88.0,-99.9,-100.00,North,-999,0.0,6.0,-999,-99.99,,,-99.99,,2014-10-22 20:23:00,
2014-10-22 13:52:00,89.0,-99.9,-100.00,SE,129,4.0,8.0,-999,-99.99,,,-99.99,,2014-10-22 20:52:00,
2014-10-22 14:00:00,89.0,-99.9,-100.00,SE,145,3.0,7.0,-999,-99.99,,,-99.99,,2014-10-22 21:00:00,
2014-10-22 14:03:00,89.0,-99.9,-100.00,SE,129,4.0,8.0,-999,-99.99,,,-99.99,,2014-10-22 21:03:00,
2014-10-22 14:54:00,89.0,-99.9,-100.00,SE,145,3.0,7.0,-999,-99.99,,,-99.99,,2014-10-22 21:54:00,
2014-10-22 15:53:00,90.0,-99.9,-100.00,SE,128,6.0,7.0,-999,-99.99,,,-99.99,,2014-10-22 22:53:00,
2014-10-22 16:03:00,90.0,-99.9,-100.00,SE,128,6.0,7.0,-999,-99.99,,,-99.99,,2014-10-22 23:03:00,
2014-10-22 16:20:00,90.0,-99.9,-100.00,ESE,113,1.0,5.0,-999,-99.99,,,-99.99,,2014-10-22 23:20:00,
2014-10-22 16:22:00,89.0,-99.9,-100.00,North,-999,0.0,9.0,-999,-99.99,,,-99.99,,2014-10-22 23:22:00,
2014-10-22 16:52:00,91.0,-99.9,-100.00,SE,127,2.0,6.0,-999,-99.99,,,-99.99,,2014-10-22 23:52:00,
2014-10-22 17:12:00,90.0,-99.9,-100.00,ESE,113,1.0,5.0,-999,-99.99,,,-99.99,,2014-10-23 00:12:00,
2014-10-22 17:30:00,89.0,-99.9,-100.00,WNW,282,1.0,4.0,-999,-99.99,,,-99.99,,2014-10-23 00:30:00,
2014-10-22 17:42:00,90.0,-99.9,-100.00,SE,135,5.0,5.0,-999,-99.99,,,-99.99,,2014-10-23 00:42:00,
2014-10-22 17:52:00,90.0,-99.9,-100.00,SE,135,5.0,5.0,-999,-99.99,,,-99.99,,2014-10-23 00:52:00,
2014-10-22 18:12:00,89.0,-99.9,-100.00,WNW,282,1.0,4.0,-999,-99.99,,,-99.99,,2014-10-23 01:12:00,
2014-10-22 18:22:00,89.0,-99.9,-100.00,WNW,282,1.0,4.0,-999,-99.99,,,-99.99,,2014-10-23 01:22:00,
2014-10-22 19:22:00,87.0,-99.9,-100.00,WSW,249,3.0,4.0,-999,-99.99,,,-99.99,,2014-10-23 02:22:00,
2014-10-22 21:24:00,80.0,-99.9,-100.00,West,276,2.0,3.0,-999,-99.99,,,-99.99,,2014-10-23 04:24:00,
2014-10-22 21:53:00,80.0,-99.9,-100.00,West,273,7.0,7.0,-999,-99.99,,,-99.99,,2014-10-23 04:53:00,
2014-10-22 22:04:00,80.0,-99.9,-100.00,West,273,7.0,7.0,-999,-99.99,,,-99.99,,2014-10-23 05:04:00,
2014-10-22 22:13:00,80.0,-99.9,-100.00,West,273,7.0,7.0,-999,-99.99,,,-99.99,,2014-10-23 05:13:00,